ONEWEB-0143

Last updated on Mon Jan 18 2021 00:02:03 GMT+0000 (Coordinated Universal Time)

1 47289U 20100AH 21017.58334491 -.01460549 00000-0 -11253+0 0 9993 2 47289 87.3854 29.1219 0011363 165.7672 250.9139 15.05019289 1841

Satellite not in orbit